This is the latest recevied weather packets stored in our database for station/object kj4yre. If no packets are shown the sender has not sent any weather packets the latest 1 day(s).
| Time | Temp. | Humidity | Pressure | Rain* | Wind** | Luminosity | Snow |
|---|---|---|---|---|---|---|---|
| 1836274510 | 20° C | 100% | 1018.8 hPa | 0 mm | 0 m/s | - | - |
| 1836274209 | 20° C | 100% | 1018.8 hPa | 0 mm | 0 m/s | - | - |
| 1778054237 | 17.78° C | 79% | 1014.3 hPa | 0 mm | 1.79 m/s, 231° | - | - |
| 1778052437 | 17.78° C | 79% | 1014.5 hPa | 0 mm | 1.79 m/s, 286° | - | - |
| 1778051235 | 17.78° C | 79% | 1014.7 hPa | 0 mm | 1.34 m/s, 204° | - | - |
| 1778049735 | 18.33° C | 79% | 1014.7 hPa | 0 mm | 3.13 m/s, 234° | - | - |
| 1778048836 | 18.33° C | 79% | 1014.7 hPa | 0 mm | 0.89 m/s, 247° | - | - |
| 1778044636 | 18.89° C | 79% | 1015.2 hPa | 0 mm | 1.34 m/s, 220° | - | - |
| 1778044335 | 18.89° C | 78% | 1015.3 hPa | 0 mm | 2.68 m/s, 245° | - | - |
| 1778038033 | 20.56° C | 72% | 1015.1 hPa | 0 mm | 2.68 m/s, 153° | - | - |
| 1778037435 | 20.56° C | 71% | 1015.1 hPa | 0 mm | 2.68 m/s, 200° | - | - |
| 1778036235 | 21.11° C | 69% | 1015 hPa | 0 mm | 1.34 m/s, 207° | - | - |
| 1778035336 | 21.67° C | 67% | 1014.9 hPa | 0 mm | 1.79 m/s, 224° | - | - |
| 1778035035 | 21.67° C | 66% | 1014.9 hPa | 0 mm | 2.24 m/s, 184° | - | - |
| 1778034736 | 21.67° C | 66% | 1014.9 hPa | 0 mm | 2.24 m/s, 149° | - | - |
| 1778033536 | 21.67° C | 64% | 1014.6 hPa | 0 mm | 0.89 m/s, 188° | - | - |
| 1778031436 | 21.67° C | 61% | 1014.3 hPa | 0 mm | 0.89 m/s, 225° | - | - |
| 1778031137 | 21.67° C | 60% | 1014.2 hPa | 0 mm | 0.89 m/s, 255° | - | - |
| 1778030537 | 22.22° C | 60% | 1014.2 hPa | 0 mm | 0.89 m/s, 218° | - | - |
| 1778030236 | 22.22° C | 60% | 1014.1 hPa | 0 mm | 0.89 m/s, 243° | - | - |
| 1778029638 | 22.22° C | 59% | 1014 hPa | 0 mm | 0.45 m/s, 242° | - | - |
| 1778029336 | 22.22° C | 58% | 1014 hPa | 0 mm | 0.45 m/s, 221° | - | - |
| 1778027537 | 22.78° C | 55% | 1013.6 hPa | 0 mm | 0.89 m/s, 216° | - | - |
| 1778026037 | 23.33° C | 54% | 1013.4 hPa | 0 mm | 0.89 m/s, 198° | - | - |
| 1778023938 | 24.44° C | 48% | 1013.3 hPa | 0 mm | 1.34 m/s, 256° | - | - |
* Rain latest hour (hover to see other rain measurements)
** Current wind speed in m/s (hover to see current wind gust speed)